| time (UTC) | temp F | wind direction | speed MPH | gust MPH | rain 1hr in | rain 24hr in | rain mn in | humidity % | barometer mb |
| 20260831185733 | 79 | 70 | 1.0 | 1.0 | 0.00 | 0.00 | 0.00 | 41 | 1018.6 |
| 20260831185229 | 79 | 256 | 0.0 | 0.0 | 0.00 | 0.00 | 0.00 | 39 | 1018.8 |
| 20260831184727 | 78 | 292 | 1.0 | 2.0 | 0.00 | 0.00 | 0.00 | 40 | 1018.7 |
| 20260831184224 | 77 | 256 | 2.0 | 3.0 | 0.00 | 0.00 | 0.00 | 41 | 1018.7 |
| 20260831183723 | 77 | 268 | 2.0 | 3.0 | 0.00 | 0.00 | 0.00 | 39 | 1018.9 |
| 20260831183218 | 78 | 325 | 3.0 | 3.0 | 0.00 | 0.00 | 0.00 | 38 | 1019.0 |
| 20260831182717 | 77 | 325 | 0.0 | 1.0 | 0.00 | 0.00 | 0.00 | 39 | 1018.8 |
| 20260831182213 | 77 | 203 | 1.0 | 1.0 | 0.00 | 0.00 | 0.00 | 38 | 1018.9 |
| 20260831181712 | 78 | 29 | 1.0 | 1.0 | 0.00 | 0.00 | 0.00 | 37 | 1019.0 |
| 20260831181208 | 77 | 299 | 1.0 | 2.0 | 0.00 | 0.00 | 0.00 | 39 | 1018.9 |
| 20260831180703 | 77 | 259 | 0.0 | 0.0 | 0.00 | 0.00 | 0.00 | 46 | 1019.1 |
| 20260831180158 | 76 | 47 | 1.0 | 2.0 | 0.00 | 0.00 | 0.00 | 44 | 1019.1 |
| 20260831175657 | 76 | 189 | 1.0 | 1.0 | 0.00 | 0.00 | 0.00 | 44 | 1019.0 |
| 20260831175154 | 76 | 254 | 1.0 | 1.0 | 0.00 | 0.00 | 0.00 | 43 | 1019.2 |
| 20260831174654 | 77 | 302 | 1.0 | 2.0 | 0.00 | 0.00 | 0.00 | 46 | 1019.4 |
| 20260831174149 | 76 | 316 | 1.0 | 1.0 | 0.00 | 0.00 | 0.00 | 44 | 1019.3 |
| 20260831173648 | 76 | 338 | 2.0 | 2.0 | 0.00 | 0.00 | 0.00 | 45 | 1019.4 |
| 20260831173144 | 75 | 301 | 1.0 | 1.0 | 0.00 | 0.00 | 0.00 | 51 | 1019.4 |
| 20260831172643 | 75 | 30 | 2.0 | 3.0 | 0.00 | 0.00 | 0.00 | 46 | 1019.3 |
| 20260831172138 | 75 | 45 | 3.0 | 3.0 | 0.00 | 0.00 | 0.00 | 45 | 1019.4 |
| 20260831171633 | 76 | 341 | 3.0 | 3.0 | 0.00 | 0.00 | 0.00 | 49 | 1019.5 |
| 20260831171131 | 76 | 59 | 2.0 | 3.0 | 0.00 | 0.00 | 0.00 | 46 | 1019.5 |
| 20260831170627 | 76 | 294 | 2.0 | 3.0 | 0.00 | 0.00 | 0.00 | 46 | 1019.7 |
| 20260831170124 | 75 | 304 | 0.0 | 0.0 | 0.00 | 0.00 | 0.00 | 50 | 1019.6 |
| 20260831165619 | 75 | 254 | 1.0 | 1.0 | 0.00 | 0.00 | 0.00 | 48 | 1019.8 |
| 20260831165116 | 74 | 232 | 2.0 | 2.0 | 0.00 | 0.00 | 0.00 | 46 | 1019.9 |
| 20260831164611 | 75 | 272 | 0.0 | 0.0 | 0.00 | 0.00 | 0.00 | 46 | 1019.7 |
| 20260831164107 | 75 | 264 | 0.0 | 1.0 | 0.00 | 0.00 | 0.00 | 47 | 1019.8 |
| 20260831163601 | 74 | 237 | 2.0 | 2.0 | 0.00 | 0.00 | 0.00 | 47 | 1020.0 |
| 20260831163057 | 74 | 298 | 2.0 | 3.0 | 0.00 | 0.00 | 0.00 | 46 | 1020.1 |
| 20260831162556 | 73 | 25 | 0.0 | 1.0 | 0.00 | 0.00 | 0.00 | 47 | 1020.1 |
| 20260831162054 | 73 | 229 | 2.0 | 2.0 | 0.00 | 0.00 | 0.00 | 47 | 1020.2 |
| 20260831161550 | 74 | 263 | 3.0 | 4.0 | 0.00 | 0.00 | 0.00 | 47 | 1020.2 |
| 20260831161046 | 73 | 300 | 0.0 | 1.0 | 0.00 | 0.00 | 0.00 | 52 | 1020.0 |
| 20260831160539 | 74 | 304 | 3.0 | 4.0 | 0.00 | 0.00 | 0.00 | 46 | 1020.0 |
| 20260831160035 | 73 | 5 | 1.0 | 2.0 | 0.00 | 0.00 | 0.00 | 50 | 1020.1 |
| 20260831155530 | 73 | 233 | 2.0 | 3.0 | 0.00 | 0.00 | 0.00 | 50 | 1020.1 |
| 20260831155024 | 72 | 323 | 2.0 | 2.0 | 0.00 | 0.00 | 0.00 | 52 | 1020.2 |
| 20260831154521 | 71 | 269 | 2.0 | 3.0 | 0.00 | 0.00 | 0.00 | 54 | 1020.2 |
| 20260831154020 | 72 | 42 | 2.0 | 3.0 | 0.00 | 0.00 | 0.00 | 51 | 1020.4 |
| 20260831153521 | 71 | 87 | 3.0 | 3.0 | 0.00 | 0.00 | 0.00 | 52 | 1020.3 |
| 20260831153018 | 72 | 49 | 3.0 | 3.0 | 0.00 | 0.00 | 0.00 | 50 | 1020.5 |
| 20260831152513 | 71 | 348 | 2.0 | 3.0 | 0.00 | 0.00 | 0.00 | 55 | 1020.5 |
| 20260831152008 | 71 | 349 | 3.0 | 6.0 | 0.00 | 0.00 | 0.00 | 54 | 1020.4 |
| 20260831151508 | 70 | 334 | 0.0 | 0.0 | 0.00 | 0.00 | 0.00 | 53 | 1020.6 |
| 20260831151002 | 71 | 345 | 1.0 | 2.0 | 0.00 | 0.00 | 0.00 | 54 | 1020.7 |
| 20260831150458 | 70 | 351 | 2.0 | 2.0 | 0.00 | 0.00 | 0.00 | 56 | 1020.8 |
| 20260831145958 | 71 | 79 | 2.0 | 3.0 | 0.00 | 0.00 | 0.00 | 52 | 1020.7 |
| 20260831145453 | 71 | 353 | 1.0 | 1.0 | 0.00 | 0.00 | 0.00 | 54 | 1020.6 |
| 20260831144949 | 71 | 328 | 1.0 | 2.0 | 0.00 | 0.00 | 0.00 | 61 | 1020.8 |
| 20260831144444 | 70 | 267 | 2.0 | 2.0 | 0.00 | 0.00 | 0.00 | 58 | 1021.0 |
| 20260831143940 | 70 | 331 | 0.0 | 0.0 | 0.00 | 0.00 | 0.00 | 58 | 1021.0 |
| 20260831143434 | 69 | 216 | 2.0 | 2.0 | 0.00 | 0.00 | 0.00 | 58 | 1020.9 |
| 20260831142930 | 69 | 256 | 0.0 | 1.0 | 0.00 | 0.00 | 0.00 | 60 | 1021.0 |
| 20260831142426 | 69 | 57 | 3.0 | 4.0 | 0.00 | 0.00 | 0.00 | 57 | 1020.8 |
| 20260831141920 | 69 | 282 | 2.0 | 2.0 | 0.00 | 0.00 | 0.00 | 57 | 1020.8 |
| 20260831141414 | 68 | 71 | 2.0 | 3.0 | 0.00 | 0.00 | 0.00 | 55 | 1020.7 |
| 20260831140909 | 68 | 22 | 2.0 | 3.0 | 0.00 | 0.00 | 0.00 | 57 | 1021.0 |
| 20260831140404 | 68 | 334 | 1.0 | 2.0 | 0.00 | 0.00 | 0.00 | 58 | 1021.0 |
| 20260831135902 | 68 | 245 | 3.0 | 3.0 | 0.00 | 0.00 | 0.00 | 57 | 1020.9 |
| 20260831135356 | 68 | 322 | 2.0 | 3.0 | 0.00 | 0.00 | 0.00 | 60 | 1021.1 |
| 20260831134852 | 68 | 64 | 4.0 | 4.0 | 0.00 | 0.00 | 0.00 | 58 | 1021.0 |
| 20260831134349 | 68 | 7 | 1.0 | 1.0 | 0.00 | 0.00 | 0.00 | 60 | 1021.2 |
| 20260831133848 | 68 | 41 | 3.0 | 3.0 | 0.00 | 0.00 | 0.00 | 59 | 1020.9 |
| 20260831133342 | 67 | 352 | 2.0 | 2.0 | 0.00 | 0.00 | 0.00 | 64 | 1020.8 |
| 20260831132838 | 68 | 266 | 2.0 | 3.0 | 0.00 | 0.00 | 0.00 | 62 | 1020.9 |
| 20260831132332 | 67 | 30 | 0.0 | 1.0 | 0.00 | 0.00 | 0.00 | 64 | 1020.6 |
| 20260831131827 | 67 | 276 | 2.0 | 3.0 | 0.00 | 0.00 | 0.00 | 63 | 1020.7 |
| 20260831131323 | 67 | 290 | 0.0 | 1.0 | 0.00 | 0.00 | 0.00 | 66 | 1020.7 |
| 20260831130818 | 66 | 292 | 2.0 | 3.0 | 0.00 | 0.00 | 0.00 | 68 | 1020.6 |
| 20260831130313 | 66 | 10 | 1.0 | 2.0 | 0.00 | 0.00 | 0.00 | 69 | 1020.5 |
| 20260831125812 | 66 | 27 | 1.0 | 2.0 | 0.00 | 0.00 | 0.00 | 69 | 1020.7 |
| 20260831125308 | 66 | 305 | 0.0 | 1.0 | 0.00 | 0.00 | 0.00 | 71 | 1020.8 |
| 20260831124808 | 65 | 25 | 2.0 | 2.0 | 0.00 | 0.00 | 0.00 | 72 | 1020.6 |
| 20260831124304 | 65 | 63 | 2.0 | 2.0 | 0.00 | 0.00 | 0.00 | 72 | 1020.4 |
| 20260831123804 | 65 | 52 | 1.0 | 2.0 | 0.00 | 0.00 | 0.00 | 74 | 1020.5 |
| 20260831123302 | 65 | 27 | 1.0 | 2.0 | 0.00 | 0.00 | 0.00 | 74 | 1020.4 |
| 20260831122757 | 64 | 3 | 3.0 | 4.0 | 0.00 | 0.00 | 0.00 | 76 | 1020.4 |
| 20260831122253 | 64 | 316 | 1.0 | 2.0 | 0.00 | 0.00 | 0.00 | 79 | 1020.2 |
| 20260831121753 | 64 | 40 | 1.0 | 2.0 | 0.00 | 0.00 | 0.00 | 77 | 1020.5 |
| 20260831121249 | 63 | 343 | 1.0 | 1.0 | 0.00 | 0.00 | 0.00 | 80 | 1020.3 |
| 20260831120744 | 62 | 345 | 1.0 | 2.0 | 0.00 | 0.00 | 0.00 | 83 | 1020.3 |
| 20260831120239 | 63 | 340 | 1.0 | 1.0 | 0.00 | 0.00 | 0.00 | 83 | 1020.4 |
| 20260831115734 | 62 | 317 | 0.0 | 0.0 | 0.00 | 0.00 | 0.00 | 84 | 1020.3 |
| 20260831115230 | 60 | 332 | 0.0 | 0.0 | 0.00 | 0.00 | 0.00 | 91 | 1020.6 |
| 20260831114730 | 59 | 296 | 0.0 | 0.0 | 0.00 | 0.00 | 0.00 | 91 | 1020.5 |
| 20260831114229 | 58 | 333 | 0.0 | 0.0 | 0.00 | 0.00 | 0.00 | 93 | 1020.6 |
| 20260831113725 | 56 | 329 | 0.0 | 0.0 | 0.00 | 0.00 | 0.00 | 97 | 1020.4 |
| 20260831113219 | 54 | 327 | 0.0 | 0.0 | 0.00 | 0.00 | 0.00 | 99 | 1020.3 |
| 20260831112718 | 54 | 303 | 0.0 | 0.0 | 0.00 | 0.00 | 0.00 | 99 | 1020.5 |
| 20260831112214 | 53 | 309 | 0.0 | 0.0 | 0.00 | 0.00 | 0.00 | 99 | 1020.5 |
| 20260831111709 | 53 | 331 | 0.0 | 0.0 | 0.00 | 0.00 | 0.00 | 99 | 1020.2 |
| 20260831111206 | 53 | 324 | 0.0 | 0.0 | 0.00 | 0.00 | 0.00 | 99 | 1020.2 |
| 20260831110701 | 52 | 321 | 0.0 | 0.0 | 0.00 | 0.00 | 0.00 | 99 | 1020.4 |
| 20260831110155 | 52 | 313 | 0.0 | 0.0 | 0.00 | 0.00 | 0.00 | 99 | 1020.2 |
| 20260831105649 | 51 | 318 | 0.0 | 0.0 | 0.00 | 0.00 | 0.00 | 99 | 1020.2 |
| 20260831105144 | 51 | 335 | 0.0 | 0.0 | 0.00 | 0.00 | 0.00 | 99 | 1020.0 |
| 20260831104639 | 51 | 318 | 0.0 | 0.0 | 0.00 | 0.00 | 0.00 | 99 | 1020.1 |
| 20260831104136 | 51 | 305 | 0.0 | 0.0 | 0.00 | 0.00 | 0.00 | 99 | 1019.7 |
| 20260831103631 | 50 | 306 | 0.0 | 0.0 | 0.00 | 0.00 | 0.00 | 99 | 1019.8 |
| 20260831103127 | 51 | 303 | 0.0 | 0.0 | 0.00 | 0.00 | 0.00 | 99 | 1019.8 |
| 20260831102627 | 51 | 347 | 0.0 | 0.0 | 0.00 | 0.00 | 0.00 | 99 | 1019.6 |
| 20260831102121 | 51 | 342 | 0.0 | 0.0 | 0.00 | 0.00 | 0.00 | 99 | 1019.6 |
| 20260831101621 | 51 | 315 | 0.0 | 0.0 | 0.00 | 0.00 | 0.00 | 99 | 1019.7 |
| 20260831101118 | 52 | 347 | 0.0 | 1.0 | 0.00 | 0.00 | 0.00 | 99 | 1019.7 |
| 20260831100613 | 52 | 323 | 0.0 | 0.0 | 0.00 | 0.00 | 0.00 | 99 | 1019.6 |
| 20260831100109 | 53 | 310 | 0.0 | 0.0 | 0.00 | 0.00 | 0.00 | 98 | 1019.5 |
| 20260831095607 | 54 | 312 | 0.0 | 0.0 | 0.00 | 0.00 | 0.00 | 98 | 1019.6 |
| 20260831095102 | 54 | 315 | 0.0 | 0.0 | 0.00 | 0.00 | 0.00 | 97 | 1019.5 |
| 20260831094558 | 55 | 317 | 0.0 | 0.0 | 0.00 | 0.00 | 0.00 | 97 | 1019.4 |
| 20260831094054 | 55 | 318 | 0.0 | 1.0 | 0.00 | 0.00 | 0.00 | 97 | 1019.4 |
| 20260831093549 | 55 | 298 | 0.0 | 1.0 | 0.00 | 0.00 | 0.00 | 97 | 1019.4 |
| 20260831093045 | 55 | 244 | 1.0 | 1.0 | 0.00 | 0.00 | 0.00 | 97 | 1019.3 |
| 20260831092541 | 55 | 258 | 1.0 | 1.0 | 0.00 | 0.00 | 0.00 | 98 | 1019.2 |
| 20260831092036 | 54 | 277 | 1.0 | 2.0 | 0.00 | 0.00 | 0.00 | 99 | 1019.2 |
| 20260831091531 | 54 | 308 | 0.0 | 0.0 | 0.00 | 0.00 | 0.00 | 99 | 1019.2 |
| 20260831091026 | 53 | 313 | 0.0 | 0.0 | 0.00 | 0.00 | 0.00 | 99 | 1019.2 |
| 20260831090521 | 52 | 305 | 0.0 | 0.0 | 0.00 | 0.00 | 0.00 | 99 | 1019.1 |
| 20260831090018 | 52 | 310 | 0.0 | 0.0 | 0.00 | 0.00 | 0.00 | 99 | 1019.0 |
| 20260831085512 | 53 | 308 | 0.0 | 0.0 | 0.00 | 0.00 | 0.00 | 99 | 1019.0 |
| 20260831085007 | 53 | 327 | 0.0 | 0.0 | 0.00 | 0.00 | 0.00 | 99 | 1019.0 |
| 20260831084503 | 53 | 327 | 0.0 | 0.0 | 0.00 | 0.00 | 0.00 | 99 | 1018.9 |
| 20260831083959 | 53 | 330 | 0.0 | 0.0 | 0.00 | 0.00 | 0.00 | 99 | 1019.0 |
| 20260831083454 | 54 | 337 | 0.0 | 0.0 | 0.00 | 0.00 | 0.00 | 99 | 1018.8 |
| 20260831082953 | 54 | 344 | 0.0 | 0.0 | 0.00 | 0.00 | 0.00 | 98 | 1018.8 |
| 20260831082448 | 55 | 332 | 0.0 | 0.0 | 0.00 | 0.00 | 0.00 | 97 | 1018.8 |
| 20260831081943 | 55 | 349 | 1.0 | 1.0 | 0.00 | 0.00 | 0.00 | 97 | 1018.8 |
| 20260831081439 | 56 | 3 | 0.0 | 0.0 | 0.00 | 0.00 | 0.00 | 95 | 1018.6 |
| 20260831080934 | 57 | 310 | 0.0 | 0.0 | 0.00 | 0.00 | 0.00 | 94 | 1018.6 |
| 20260831080429 | 57 | 307 | 0.0 | 0.0 | 0.00 | 0.00 | 0.00 | 94 | 1018.6 |
| 20260831075925 | 57 | 304 | 0.0 | 0.0 | 0.00 | 0.00 | 0.00 | 95 | 1018.4 |
| 20260831075420 | 57 | 308 | 0.0 | 0.0 | 0.00 | 0.00 | 0.00 | 95 | 1018.2 |
| 20260831074916 | 57 | 268 | 0.0 | 0.0 | 0.00 | 0.00 | 0.00 | 95 | 1018.5 |
| 20260831074415 | 57 | 307 | 0.0 | 0.0 | 0.00 | 0.00 | 0.00 | 95 | 1018.4 |
| 20260831073909 | 57 | 11 | 0.0 | 0.0 | 0.00 | 0.00 | 0.00 | 95 | 1018.5 |
| 20260831073409 | 57 | 305 | 0.0 | 0.0 | 0.00 | 0.00 | 0.00 | 95 | 1018.3 |
| 20260831072903 | 57 | 302 | 0.0 | 0.0 | 0.00 | 0.00 | 0.00 | 95 | 1018.4 |
| 20260831072359 | 57 | 322 | 0.0 | 1.0 | 0.00 | 0.00 | 0.00 | 95 | 1018.4 |
| 20260831071855 | 57 | 291 | 0.0 | 1.0 | 0.00 | 0.00 | 0.00 | 94 | 1018.3 |
| 20260831071354 | 58 | 0 | 0.0 | 0.0 | 0.00 | 0.00 | 0.00 | 94 | 1018.4 |
| 20260831070849 | 58 | 303 | 0.0 | 0.0 | 0.00 | 0.00 | 0.00 | 93 | 1018.4 |
| 20260831070348 | 59 | 338 | 1.0 | 1.0 | 0.00 | 0.00 | 0.00 | 93 | 1018.4 |
| 20260831065848 | 59 | 305 | 0.0 | 0.0 | 0.00 | 0.00 | 0.00 | 93 | 1018.3 |
| 20260831065345 | 59 | 303 | 0.0 | 0.0 | 0.00 | 0.00 | 0.00 | 94 | 1018.2 |
| 20260831064841 | 58 | 282 | 1.0 | 2.0 | 0.00 | 0.00 | 0.00 | 94 | 1018.2 |
| 20260831064336 | 58 | 12 | 0.0 | 0.0 | 0.00 | 0.00 | 0.00 | 94 | 1018.4 |
| 20260831063832 | 59 | 313 | 0.0 | 0.0 | 0.00 | 0.00 | 0.00 | 94 | 1018.2 |
| 20260831063327 | 59 | 300 | 0.0 | 0.0 | 0.00 | 0.00 | 0.00 | 93 | 1018.3 |
| 20260831062827 | 59 | 294 | 1.0 | 1.0 | 0.00 | 0.00 | 0.00 | 93 | 1018.2 |
| 20260831062322 | 59 | 292 | 0.0 | 0.0 | 0.00 | 0.00 | 0.00 | 94 | 1018.1 |
| 20260831061820 | 59 | 285 | 1.0 | 2.0 | 0.00 | 0.00 | 0.00 | 95 | 1018.1 |
| 20260831061315 | 58 | 299 | 0.0 | 0.0 | 0.00 | 0.00 | 0.00 | 96 | 1018.2 |
| 20260831060811 | 58 | 307 | 0.0 | 0.0 | 0.00 | 0.00 | 0.00 | 97 | 1018.0 |
| 20260831060310 | 58 | 320 | 1.0 | 2.0 | 0.00 | 0.00 | 0.00 | 98 | 1017.9 |
| 20260831055810 | 58 | 259 | 1.0 | 1.0 | 0.00 | 0.00 | 0.00 | 98 | 1017.8 |
| 20260831055306 | 58 | 291 | 0.0 | 1.0 | 0.00 | 0.00 | 0.00 | 99 | 1017.8 |
| 20260831054801 | 57 | 302 | 0.0 | 1.0 | 0.00 | 0.00 | 0.00 | 99 | 1017.8 |
| 20260831054255 | 57 | 338 | 0.0 | 0.0 | 0.00 | 0.00 | 0.00 | 99 | 1017.9 |
| 20260831053754 | 57 | 301 | 0.0 | 0.0 | 0.00 | 0.00 | 0.00 | 99 | 1017.5 |
| 20260831053253 | 57 | 283 | 0.0 | 0.0 | 0.00 | 0.00 | 0.00 | 99 | 1017.8 |
| 20260831052748 | 57 | 298 | 0.0 | 0.0 | 0.00 | 0.00 | 0.00 | 99 | 1017.6 |
| 20260831052247 | 56 | 312 | 0.0 | 0.0 | 0.00 | 0.00 | 0.00 | 99 | 1017.7 |
| 20260831051745 | 57 | 291 | 0.0 | 0.0 | 0.00 | 0.00 | 0.00 | 99 | 1017.7 |
| 20260831051244 | 57 | 291 | 0.0 | 0.0 | 0.00 | 0.00 | 0.00 | 99 | 1017.5 |
| 20260831050739 | 56 | 310 | 0.0 | 0.0 | 0.00 | 0.00 | 0.00 | 99 | 1017.5 |
| 20260831050238 | 57 | 312 | 0.0 | 0.0 | 0.00 | 0.00 | 0.00 | 99 | 1017.4 |
| 20260831045732 | 57 | 307 | 0.0 | 0.0 | 0.00 | 0.00 | 0.00 | 99 | 1017.4 |
| 20260831045227 | 58 | 313 | 0.0 | 0.0 | 0.00 | 0.00 | 0.00 | 99 | 1017.4 |
| 20260831044722 | 58 | 302 | 0.0 | 0.0 | 0.00 | 0.00 | 0.00 | 98 | 1017.3 |
| 20260831044217 | 58 | 304 | 0.0 | 0.0 | 0.00 | 0.00 | 0.00 | 97 | 1017.3 |
| 20260831043713 | 59 | 312 | 0.0 | 0.0 | 0.00 | 0.00 | 0.00 | 96 | 1017.2 |
| 20260831043208 | 59 | 318 | 0.0 | 0.0 | 0.00 | 0.00 | 0.00 | 96 | 1017.2 |
| 20260831042707 | 59 | 292 | 0.0 | 0.0 | 0.00 | 0.00 | 0.00 | 96 | 1017.2 |
| 20260831042202 | 60 | 310 | 0.0 | 0.0 | 0.00 | 0.00 | 0.00 | 95 | 1017.3 |
| 20260831041657 | 60 | 310 | 0.0 | 0.0 | 0.00 | 0.00 | 0.00 | 94 | 1017.3 |
| 20260831041156 | 60 | 279 | 0.0 | 0.0 | 0.00 | 0.00 | 0.00 | 94 | 1017.2 |
| 20260831040652 | 61 | 298 | 0.0 | 0.0 | 0.00 | 0.00 | 0.00 | 94 | 1017.3 |
| 20260831040150 | 61 | 287 | 0.0 | 0.0 | 0.00 | 0.00 | 0.00 | 93 | 1017.3 |
| 20260831035649 | 62 | 265 | 0.0 | 0.0 | 0.00 | 0.00 | 0.00 | 92 | 1017.3 |
| 20260831035144 | 62 | 333 | 3.0 | 3.0 | 0.00 | 0.00 | 0.00 | 92 | 1017.2 |
| 20260831034642 | 62 | 299 | 1.0 | 1.0 | 0.00 | 0.00 | 0.00 | 91 | 1017.3 |
| 20260831034138 | 62 | 290 | 0.0 | 1.0 | 0.00 | 0.00 | 0.00 | 90 | 1017.5 |
| 20260831033634 | 63 | 297 | 1.0 | 1.0 | 0.00 | 0.00 | 0.00 | 89 | 1017.2 |
| 20260831033129 | 63 | 279 | 0.0 | 0.0 | 0.00 | 0.00 | 0.00 | 89 | 1017.1 |
| 20260831032629 | 63 | 313 | 0.0 | 0.0 | 0.00 | 0.00 | 0.00 | 89 | 1017.1 |
| 20260831032124 | 63 | 300 | 0.0 | 0.0 | 0.00 | 0.00 | 0.00 | 88 | 1017.0 |
| 20260831031619 | 63 | 308 | 0.0 | 0.0 | 0.00 | 0.00 | 0.00 | 88 | 1016.9 |
| 20260831031118 | 63 | 299 | 0.0 | 0.0 | 0.00 | 0.00 | 0.00 | 87 | 1017.0 |
| 20260831030617 | 63 | 298 | 0.0 | 0.0 | 0.00 | 0.00 | 0.00 | 87 | 1017.3 |
| 20260831030116 | 63 | 316 | 0.0 | 0.0 | 0.00 | 0.00 | 0.00 | 87 | 1017.4 |
| 20260831025615 | 64 | 307 | 0.0 | 0.0 | 0.00 | 0.00 | 0.00 | 86 | 1017.2 |
| 20260831025110 | 64 | 290 | 0.0 | 0.0 | 0.00 | 0.00 | 0.00 | 86 | 1017.3 |
| 20260831024606 | 64 | 311 | 1.0 | 2.0 | 0.00 | 0.00 | 0.00 | 87 | 1017.4 |
| 20260831024105 | 64 | 289 | 1.0 | 1.0 | 0.00 | 0.00 | 0.00 | 86 | 1017.5 |
| 20260831023603 | 64 | 356 | 1.0 | 2.0 | 0.00 | 0.00 | 0.00 | 85 | 1017.7 |
| 20260831023102 | 64 | 309 | 2.0 | 3.0 | 0.00 | 0.00 | 0.00 | 85 | 1017.6 |
| 20260831022557 | 64 | 356 | 2.0 | 3.0 | 0.00 | 0.00 | 0.00 | 84 | 1017.5 |
| 20260831022052 | 65 | 65 | 4.0 | 6.0 | 0.00 | 0.00 | 0.00 | 83 | 1017.4 |
| 20260831021551 | 66 | 38 | 3.0 | 4.0 | 0.00 | 0.00 | 0.00 | 81 | 1017.7 |
| 20260831021047 | 66 | 8 | 1.0 | 1.0 | 0.00 | 0.00 | 0.00 | 79 | 1017.3 |
| 20260831020542 | 67 | 278 | 2.0 | 3.0 | 0.00 | 0.00 | 0.00 | 76 | 1017.1 |
| 20260831020037 | 68 | 305 | 7.0 | 9.0 | 0.00 | 0.00 | 0.00 | 75 | 1017.2 |
| 20260831015533 | 68 | 23 | 4.0 | 7.0 | 0.00 | 0.00 | 0.00 | 75 | 1016.9 |
| 20260831015027 | 68 | 288 | 1.0 | 2.0 | 0.00 | 0.00 | 0.00 | 78 | 1016.9 |
| 20260831014522 | 65 | 354 | 1.0 | 1.0 | 0.00 | 0.00 | 0.00 | 90 | 1016.4 |
| 20260831014018 | 65 | 310 | 0.0 | 1.0 | 0.00 | 0.00 | 0.00 | 91 | 1016.2 |
| 20260831013514 | 65 | 302 | 0.0 | 0.0 | 0.00 | 0.00 | 0.00 | 91 | 1016.1 |
| 20260831013008 | 65 | 318 | 0.0 | 0.0 | 0.00 | 0.00 | 0.00 | 91 | 1016.0 |
| 20260831012502 | 65 | 313 | 0.0 | 0.0 | 0.00 | 0.00 | 0.00 | 91 | 1015.7 |
| 20260831011956 | 65 | 316 | 0.0 | 0.0 | 0.00 | 0.00 | 0.00 | 91 | 1015.8 |
| 20260831011451 | 65 | 314 | 0.0 | 0.0 | 0.00 | 0.00 | 0.00 | 90 | 1015.8 |
| 20260831010948 | 65 | 316 | 0.0 | 0.0 | 0.00 | 0.00 | 0.00 | 90 | 1015.7 |
| 20260831010447 | 65 | 304 | 0.0 | 0.0 | 0.00 | 0.00 | 0.00 | 90 | 1015.6 |
| 20260831005943 | 65 | 314 | 0.0 | 0.0 | 0.00 | 0.00 | 0.00 | 90 | 1015.6 |
| 20260831005439 | 65 | 316 | 0.0 | 0.0 | 0.00 | 0.00 | 0.00 | 89 | 1015.4 |
| 20260831004938 | 66 | 311 | 0.0 | 0.0 | 0.00 | 0.00 | 0.00 | 87 | 1015.5 |
| 20260831004435 | 66 | 308 | 0.0 | 0.0 | 0.00 | 0.00 | 0.00 | 86 | 1015.4 |
| 20260831003930 | 67 | 308 | 0.0 | 0.0 | 0.00 | 0.00 | 0.00 | 86 | 1015.4 |
| 20260831003426 | 68 | 308 | 0.0 | 0.0 | 0.00 | 0.00 | 0.00 | 84 | 1015.2 |
| 20260831002925 | 68 | 308 | 0.0 | 0.0 | 0.00 | 0.00 | 0.00 | 82 | 1015.4 |
| 20260831002424 | 68 | 300 | 0.0 | 0.0 | 0.00 | 0.00 | 0.00 | 82 | 1015.4 |
| 20260831001920 | 68 | 316 | 0.0 | 0.0 | 0.00 | 0.00 | 0.00 | 82 | 1015.3 |
| 20260831001415 | 68 | 310 | 0.0 | 0.0 | 0.00 | 0.00 | 0.00 | 82 | 1015.4 |
| 20260831000913 | 69 | 300 | 0.0 | 0.0 | 0.00 | 0.00 | 0.00 | 82 | 1015.2 |
| 20260831000410 | 69 | 305 | 0.0 | 0.0 | 0.00 | 0.00 | 0.00 | 81 | 1015.0 |
| 20260830235906 | 69 | 307 | 0.0 | 0.0 | 0.00 | 0.00 | 0.00 | 80 | 1015.1 |
| 20260830235401 | 69 | 309 | 0.0 | 0.0 | 0.00 | 0.00 | 0.00 | 79 | 1015.0 |
| 20260830234856 | 70 | 303 | 0.0 | 0.0 | 0.00 | 0.00 | 0.00 | 78 | 1014.9 |
| 20260830234351 | 70 | 310 | 0.0 | 0.0 | 0.00 | 0.00 | 0.00 | 78 | 1014.9 |
| 20260830233848 | 70 | 303 | 0.0 | 0.0 | 0.00 | 0.00 | 0.00 | 77 | 1015.1 |
| 20260830233343 | 70 | 305 | 0.0 | 0.0 | 0.00 | 0.00 | 0.00 | 76 | 1015.0 |
| 20260830232838 | 71 | 306 | 0.0 | 0.0 | 0.00 | 0.00 | 0.00 | 75 | 1015.0 |
| 20260830232334 | 71 | 301 | 1.0 | 1.0 | 0.00 | 0.00 | 0.00 | 74 | 1015.0 |
| 20260830231830 | 71 | 294 | 0.0 | 0.0 | 0.00 | 0.00 | 0.00 | 74 | 1015.0 |
| 20260830231325 | 71 | 318 | 0.0 | 0.0 | 0.00 | 0.00 | 0.00 | 75 | 1014.9 |
| 20260830230824 | 72 | 289 | 2.0 | 4.0 | 0.00 | 0.00 | 0.00 | 72 | 1015.1 |
| 20260830230320 | 71 | 302 | 2.0 | 3.0 | 0.00 | 0.00 | 0.00 | 72 | 1014.9 |
| 20260830225820 | 71 | 301 | 1.0 | 2.0 | 0.00 | 0.00 | 0.00 | 73 | 1014.8 |
| 20260830225314 | 71 | 301 | 0.0 | 0.0 | 0.00 | 0.00 | 0.00 | 74 | 1015.1 |
| 20260830224809 | 71 | 286 | 0.0 | 1.0 | 0.00 | 0.00 | 0.00 | 73 | 1014.9 |
| 20260830224303 | 71 | 284 | 1.0 | 1.0 | 0.00 | 0.00 | 0.00 | 73 | 1014.9 |
| 20260830223800 | 71 | 273 | 0.0 | 0.0 | 0.00 | 0.00 | 0.00 | 75 | 1015.0 |
| 20260830223255 | 72 | 294 | 0.0 | 0.0 | 0.00 | 0.00 | 0.00 | 74 | 1014.9 |
| 20260830222749 | 71 | 289 | 1.0 | 1.0 | 0.00 | 0.00 | 0.00 | 73 | 1015.0 |
| 20260830222246 | 71 | 294 | 0.0 | 0.0 | 0.00 | 0.00 | 0.00 | 74 | 1015.2 |
| 20260830221740 | 72 | 268 | 0.0 | 0.0 | 0.00 | 0.00 | 0.00 | 75 | 1015.2 |
| 20260830221238 | 72 | 293 | 0.0 | 0.0 | 0.00 | 0.00 | 0.00 | 75 | 1014.9 |
| 20260830220733 | 72 | 284 | 0.0 | 0.0 | 0.00 | 0.00 | 0.00 | 75 | 1014.7 |
| 20260830220231 | 72 | 317 | 0.0 | 1.0 | 0.00 | 0.00 | 0.00 | 75 | 1015.1 |
| 20260830215730 | 72 | 294 | 0.0 | 0.0 | 0.00 | 0.00 | 0.00 | 75 | 1014.9 |
| 20260830215225 | 72 | 269 | 1.0 | 2.0 | 0.00 | 0.00 | 0.00 | 75 | 1015.1 |
| 20260830214720 | 72 | 294 | 1.0 | 1.0 | 0.00 | 0.00 | 0.00 | 76 | 1015.0 |
| 20260830214220 | 72 | 280 | 1.0 | 1.0 | 0.00 | 0.00 | 0.00 | 76 | 1015.0 |
| 20260830213719 | 72 | 280 | 0.0 | 1.0 | 0.00 | 0.00 | 0.00 | 77 | 1014.9 |
| 20260830213219 | 72 | 290 | 0.0 | 1.0 | 0.00 | 0.00 | 0.00 | 77 | 1015.2 |
| 20260830212715 | 72 | 272 | 0.0 | 0.0 | 0.00 | 0.00 | 0.00 | 77 | 1014.9 |
| 20260830212211 | 73 | 288 | 0.0 | 0.0 | 0.00 | 0.00 | 0.00 | 78 | 1014.9 |
| 20260830211706 | 73 | 289 | 0.0 | 0.0 | 0.00 | 0.00 | 0.00 | 78 | 1015.2 |
| 20260830211204 | 73 | 297 | 0.0 | 0.0 | 0.00 | 0.00 | 0.00 | 77 | 1015.2 |
| 20260830210700 | 73 | 289 | 0.0 | 0.0 | 0.00 | 0.00 | 0.00 | 78 | 1015.2 |
| 20260830210200 | 73 | 245 | 0.0 | 0.0 | 0.00 | 0.00 | 0.00 | 76 | 1015.2 |
| 20260830205657 | 74 | 273 | 0.0 | 1.0 | 0.00 | 0.00 | 0.00 | 77 | 1015.3 |
| 20260830205153 | 73 | 288 | 0.0 | 0.0 | 0.00 | 0.00 | 0.00 | 77 | 1015.1 |
| 20260830204652 | 74 | 274 | 1.0 | 1.0 | 0.00 | 0.00 | 0.00 | 77 | 1015.1 |
| 20260830204151 | 73 | 264 | 0.0 | 0.0 | 0.00 | 0.00 | 0.00 | 78 | 1015.2 |
| 20260830203648 | 73 | 263 | 0.0 | 1.0 | 0.00 | 0.00 | 0.00 | 81 | 1015.2 |
| 20260830203143 | 72 | 284 | 0.0 | 0.0 | 0.00 | 0.00 | 0.00 | 83 | 1015.2 |
| 20260830202643 | 72 | 286 | 0.0 | 0.0 | 0.00 | 0.00 | 0.00 | 83 | 1015.3 |
| 20260830202138 | 71 | 291 | 0.0 | 0.0 | 0.00 | 0.00 | 0.00 | 84 | 1015.4 |
| 20260830201638 | 71 | 286 | 0.0 | 0.0 | 0.00 | 0.00 | 0.00 | 85 | 1015.4 |
| 20260830201133 | 71 | 308 | 0.0 | 0.0 | 0.00 | 0.00 | 0.00 | 84 | 1015.5 |
| 20260830200628 | 71 | 301 | 0.0 | 0.0 | 0.00 | 0.00 | 0.00 | 85 | 1015.5 |
| 20260830200127 | 71 | 296 | 0.0 | 0.0 | 0.00 | 0.00 | 0.00 | 85 | 1015.4 |
| 20260830195623 | 70 | 290 | 0.0 | 0.0 | 0.00 | 0.00 | 0.00 | 84 | 1015.6 |
| 20260830195120 | 71 | 288 | 0.0 | 0.0 | 0.00 | 0.00 | 0.00 | 84 | 1015.7 |
| 20260830194615 | 71 | 239 | 1.0 | 2.0 | 0.00 | 0.00 | 0.00 | 84 | 1015.7 |
| 20260830194114 | 71 | 283 | 1.0 | 1.0 | 0.00 | 0.00 | 0.00 | 85 | 1015.7 |
| 20260830193609 | 71 | 298 | 1.0 | 1.0 | 0.00 | 0.00 | 0.00 | 85 | 1015.6 |
| 20260830193104 | 71 | 284 | 0.0 | 0.0 | 0.00 | 0.00 | 0.00 | 86 | 1015.6 |
| 20260830192600 | 70 | 274 | 0.0 | 0.0 | 0.00 | 0.00 | 0.00 | 86 | 1016.0 |
| 20260830192059 | 70 | 266 | 1.0 | 1.0 | 0.00 | 0.00 | 0.00 | 85 | 1015.9 |
| 20260830191554 | 70 | 214 | 1.0 | 2.0 | 0.00 | 0.00 | 0.00 | 86 | 1016.0 |
| 20260830191044 | 70 | 259 | 1.0 | 2.0 | 0.00 | 0.00 | 0.00 | 87 | 1016.0 |
| 20260830190539 | 70 | 286 | 1.0 | 1.0 | 0.00 | 0.00 | 0.00 | 87 | 1016.3 |
| 20260830190034 | 70 | 236 | 1.0 | 1.0 | 0.00 | 0.00 | 0.00 | 87 | 1016.3 |